Location: Clanezzo
(45.7500°N, 9.6000°E)
Time: 01:14:34
(UTC+00:00)

Cosmos 2278 Rocket - Pass Details

Date: 12 May 2021
Orbit: 841 x 845 km, 71.0° (Epoch: 23 June)

Event Time Altitude Azimuth Distance (km) Brightness Sun altitude
Rises 21:47:01 0° 240° (WSW) 3,388 5.3 -22.6°
Reaches altitude 10° 21:49:49 10° 252° (WSW) 2,457 4.7 -22.8°
Maximum altitude 21:54:36 28° 310° (NW) 1,542 4.1 -23.2°
Drops below altitude 10° 21:59:25 10° 8° (N) 2,469 5.4 -23.5°
Sets 22:02:14 0° 21° (NNE) 3,408 6.1 -23.6°
